#timestamp,LO_Frequency,Hit,StdDev 
1596518475.4,286047008.4,P
1596518495.3,286047008.8,P
1596518515.1,286047008.3,P
1596518535.9,286047008.0,Y
1596518555.7,286046998.8,P
1596518575.5,286047001.1,N
1596518595.4,286047000.5,N
1596518615.2,286047000.3,N
1596518635.0,286047000.0,N
1596518635.9,286047000.0,N
1596518655.8,286047001.6,N
1596518675.6,286047002.1,N
1596518695.5,286047001.9,N
1596518715.3,286047001.9,N
1596518735.1,286047000.1,N
1596518755.9,286046999.9,N
1596518775.7,286047002.8,N
1596518795.5,286047000.2,N
1596518815.4,286047002.7,N
1596518835.2,286047001.3,N
1596518855.1,286047002.3,N
1596518856.0,286047002.3,N
1596518875.8,286047002.2,N
1596518895.6,286047002.1,N
1596518915.5,286047004.3,N
1596518935.3,286047001.9,N
1596518955.1,286047003.9,N
1596518975.9,286047004.0,N
1596518995.7,286047004.3,N
1596519015.6,286047003.8,N
1596519035.4,286047003.6,N
1596519055.2,286047003.7,N
1596519075.1,286047003.6,N
1596519076.0,286047003.6,N
1596519095.8,286047003.7,N
1596519115.7,286047003.6,N
1596519135.5,286047003.0,N
1596519155.3,286047005.8,Y
1596519175.2,286047003.9,P
1596519195.0,286047003.6,P
1596519195.9,286047003.6,P
1596519215.8,286047004.4,Y
1596519235.6,286047001.0,P
1596519255.4,286047000.1,N
1596519275.3,286047000.4,N
1596519295.1,286047002.5,N
1596519315.8,286047002.6,N
1596519335.7,286047000.3,N
1596519355.5,286047000.0,N
1596519375.4,286047000.3,N
1596519395.2,286047000.0,N
1596519415.0,286046998.1,N
1596519415.9,286046998.1,N
1596519435.8,286047000.9,N
1596519455.6,286047001.0,N
1596519475.4,286047000.3,N
1596519495.3,286046998.2,N
1596519515.1,286047000.3,N
1596519535.9,286047002.6,N
1596519555.7,286047002.0,N
1596519575.5,286047002.3,N
1596519595.4,286047001.7,N
1596519615.2,286047004.4,N
1596519635.1,286047001.3,N
1596519636.0,286047001.3,N
1596519655.8,286047004.3,N
1596519675.6,286047003.1,N
1596519695.5,286047001.4,N
1596519715.3,286047002.1,N
1596519735.2,286047002.1,N
1596519755.9,286047004.0,N
1596519775.7,286047001.6,N
1596519795.6,286047003.0,N
1596519815.4,286047005.1,Y
1596519835.2,286047004.4,P
1596519855.1,286047003.0,N
1596519856.0,286047003.0,N
1596519875.8,286047001.6,N
1596519895.7,286047001.7,N
1596519915.5,286047001.7,N
1596519935.3,286047002.0,N
1596519955.2,286047003.7,Y
1596519975.0,286047002.0,P
1596519975.9,286047002.0,P
1596519995.8,286047002.8,P
1596520015.6,286047002.7,Y
1596520035.4,286046999.0,P
1596520055.3,286046998.6,N
1596520075.1,286046998.6,N
1596520095.9,286046998.1,N
1596520115.7,286047001.1,N
1596520135.5,286047000.8,N
1596520155.4,286047001.1,N
1596520175.2,286047001.2,N
1596520195.0,286047001.1,N
1596520195.9,286047001.1,N
1596520215.8,286046998.1,N
1596520235.6,286047001.2,N
1596520255.5,286047000.5,N
1596520275.3,286047002.0,N
1596520295.1,286047000.1,N
1596520315.9,286047000.0,N
1596520335.7,286046999.7,N
1596520355.6,286047002.3,N
1596520375.4,286047002.2,N
1596520395.2,286047000.0,N
1596520415.1,286047002.6,N
1596520416.0,286047002.6,N
1596520435.8,286047001.7,N
1596520455.6,286047002.3,N
1596520475.5,286047002.1,N
1596520495.3,286047001.3,N
1596520515.2,286047002.1,N
1596520535.9,286047003.9,N
1596520555.7,286047004.4,Y
1596520575.6,286047001.5,P
1596520595.4,286047001.7,P
1596520615.3,286047001.6,P
1596520635.1,286047001.9,Y
1596520636.0,286047001.9,P
1596520655.8,286047000.0,N
1596520675.7,286047000.4,N
1596520695.5,286047000.2,N
1596520715.4,286047002.5,Y
1596520735.2,286047000.0,P
1596520755.0,286046999.9,N
1596520755.9,286046999.9,N
1596520775.8,286047000.2,N
1596520795.6,286046999.7,N
